| time (UTC) | temp F | wind direction | speed knots | gust knots | rain 1hr in | rain 24hr in | rain mn in | humidity % | barometer mb |
| 20260903194505 | 96 | 248 | 0.0 | 0.0 | 0.00 | 0.00 | 0.00 | 45 | 1012.3 |
| 20260903193002 | 97 | 229 | 0.0 | 2.6 | 0.00 | 0.00 | 0.00 | 45 | 1012.6 |
| 20260903191600 | 96 | 273 | 0.9 | 7.0 | 0.00 | 0.00 | 0.00 | 45 | 1012.9 |
| 20260903190059 | 96 | 258 | 0.0 | 0.0 | 0.00 | 0.00 | 0.00 | 49 | 1012.9 |
| 20260903184602 | 96 | 327 | 0.0 | 10.4 | 0.00 | 0.00 | 0.00 | 47 | 1013.1 |
| 20260903183051 | 95 | 198 | 0.0 | 3.5 | 0.00 | 0.00 | 0.00 | 48 | 1013.2 |
| 20260903181547 | 95 | 227 | 0.0 | 1.7 | 0.00 | 0.00 | 0.00 | 48 | 1013.5 |
| 20260903180044 | 94 | 202 | 0.9 | 7.8 | 0.00 | 0.00 | 0.00 | 48 | 1013.7 |
| 20260903174600 | 94 | 244 | 0.0 | 4.3 | 0.00 | 0.00 | 0.00 | 50 | 1013.9 |
| 20260903173044 | 94 | 289 | 0.0 | 11.3 | 0.00 | 0.00 | 0.00 | 50 | 1014.0 |
| 20260903171540 | 94 | 294 | 0.0 | 11.3 | 0.00 | 0.00 | 0.00 | 51 | 1014.0 |
| 20260903170100 | 94 | 234 | 0.0 | 7.8 | 0.00 | 0.00 | 0.00 | 52 | 1014.2 |
| 20260903164541 | 93 | 196 | 0.0 | 0.9 | 0.00 | 0.00 | 0.00 | 53 | 1014.3 |
| 20260903163032 | 93 | 152 | 0.0 | 0.9 | 0.00 | 0.00 | 0.00 | 53 | 1014.5 |
| 20260903161528 | 92 | 335 | 0.0 | 6.1 | 0.00 | 0.00 | 0.00 | 55 | 1014.4 |
| 20260903160030 | 91 | 261 | 0.9 | 7.0 | 0.00 | 0.00 | 0.00 | 55 | 1014.5 |
| 20260903154523 | 91 | 245 | 0.0 | 4.3 | 0.00 | 0.00 | 0.00 | 59 | 1014.5 |
| 20260903153020 | 90 | 168 | 0.0 | 2.6 | 0.00 | 0.00 | 0.00 | 61 | 1014.5 |
| 20260903151518 | 89 | 295 | 0.0 | 4.3 | 0.00 | 0.00 | 0.00 | 62 | 1014.6 |
| 20260903150023 | 88 | 199 | 0.0 | 5.2 | 0.00 | 0.00 | 0.00 | 63 | 1014.5 |
| 20260903144513 | 88 | 190 | 0.0 | 2.6 | 0.00 | 0.00 | 0.00 | 64 | 1014.5 |
| 20260903143011 | 87 | 202 | 0.0 | 6.1 | 0.00 | 0.00 | 0.00 | 65 | 1014.6 |
| 20260903141507 | 86 | 210 | 0.0 | 0.9 | 0.00 | 0.00 | 0.00 | 67 | 1014.6 |
| 20260903140003 | 85 | 240 | 0.0 | 2.6 | 0.00 | 0.00 | 0.00 | 69 | 1014.6 |
| 20260903134502 | 84 | 205 | 0.0 | 0.9 | 0.00 | 0.00 | 0.00 | 70 | 1014.5 |
| 20260903133003 | 83 | 269 | 0.0 | 0.0 | 0.00 | 0.00 | 0.00 | 71 | 1014.6 |
| 20260903131602 | 82 | 155 | 0.0 | 0.0 | 0.00 | 0.00 | 0.00 | 72 | 1014.5 |
| 20260903130115 | 81 | 155 | 0.0 | 0.0 | 0.00 | 0.00 | 0.00 | 73 | 1014.5 |
| 20260903124607 | 81 | 155 | 0.0 | 0.0 | 0.00 | 0.00 | 0.00 | 74 | 1014.4 |
| 20260903123059 | 80 | 155 | 0.0 | 0.0 | 0.00 | 0.00 | 0.00 | 75 | 1014.5 |
| 20260903121558 | 80 | 155 | 0.0 | 0.0 | 0.00 | 0.00 | 0.00 | 75 | 1014.3 |
| 20260903120055 | 80 | 155 | 0.0 | 0.0 | 0.00 | 0.00 | 0.00 | 74 | 1014.2 |
| 20260903114554 | 80 | 155 | 0.0 | 0.0 | 0.00 | 0.00 | 0.00 | 74 | 1014.1 |
| 20260903113055 | 80 | 153 | 0.0 | 0.0 | 0.00 | 0.00 | 0.00 | 74 | 1014.1 |
| 20260903111621 | 80 | 211 | 0.0 | 0.0 | 0.00 | 0.00 | 0.00 | 73 | 1014.0 |
| 20260903104649 | 80 | 211 | 0.0 | 0.0 | 0.00 | 0.00 | 0.00 | 72 | 1013.8 |
| 20260903103047 | 81 | 211 | 0.0 | 0.0 | 0.00 | 0.00 | 0.00 | 71 | 1013.7 |
| 20260903101548 | 81 | 211 | 0.0 | 0.0 | 0.00 | 0.00 | 0.00 | 71 | 1013.6 |
| 20260903100044 | 81 | 211 | 0.0 | 0.0 | 0.00 | 0.00 | 0.00 | 70 | 1013.6 |
| 20260903094547 | 81 | 211 | 0.0 | 0.0 | 0.00 | 0.00 | 0.00 | 71 | 1013.6 |
| 20260903093045 | 81 | 175 | 0.0 | 0.0 | 0.00 | 0.00 | 0.00 | 70 | 1013.6 |
| 20260903091540 | 82 | 175 | 0.0 | 0.0 | 0.00 | 0.00 | 0.00 | 69 | 1013.6 |
| 20260903090044 | 82 | 175 | 0.0 | 0.0 | 0.00 | 0.00 | 0.00 | 69 | 1013.6 |
| 20260903084538 | 82 | 175 | 0.0 | 0.0 | 0.00 | 0.00 | 0.00 | 68 | 1013.6 |
| 20260903083036 | 82 | 175 | 0.0 | 0.0 | 0.00 | 0.00 | 0.00 | 68 | 1013.6 |
| 20260903081535 | 82 | 157 | 0.0 | 0.0 | 0.00 | 0.00 | 0.00 | 69 | 1013.5 |
| 20260903080025 | 82 | 157 | 0.0 | 0.0 | 0.00 | 0.00 | 0.00 | 69 | 1013.5 |
| 20260903074524 | 82 | 157 | 0.0 | 0.0 | 0.00 | 0.00 | 0.00 | 69 | 1013.4 |
| 20260903073036 | 82 | 157 | 0.0 | 0.0 | 0.00 | 0.00 | 0.00 | 69 | 1013.4 |
| 20260903071522 | 82 | 157 | 0.0 | 0.0 | 0.00 | 0.00 | 0.00 | 69 | 1013.4 |
| 20260903070031 | 83 | 157 | 0.0 | 0.0 | 0.00 | 0.00 | 0.00 | 69 | 1013.5 |
| 20260903064519 | 83 | 157 | 0.0 | 0.0 | 0.00 | 0.00 | 0.00 | 68 | 1013.5 |
| 20260903063018 | 83 | 156 | 0.0 | 0.0 | 0.00 | 0.00 | 0.00 | 68 | 1013.5 |
| 20260903061530 | 84 | 156 | 0.0 | 0.0 | 0.00 | 0.00 | 0.00 | 67 | 1013.5 |
| 20260903060013 | 84 | 155 | 0.0 | 0.0 | 0.00 | 0.00 | 0.00 | 67 | 1013.5 |
| 20260903054514 | 84 | 148 | 0.0 | 0.0 | 0.00 | 0.00 | 0.00 | 67 | 1013.5 |
| 20260903053011 | 84 | 148 | 0.0 | 0.0 | 0.00 | 0.00 | 0.00 | 67 | 1013.5 |
| 20260903051508 | 85 | 212 | 0.0 | 0.0 | 0.00 | 0.00 | 0.00 | 67 | 1013.6 |
| 20260903050008 | 85 | 212 | 0.0 | 0.0 | 0.00 | 0.00 | 0.00 | 66 | 1013.5 |
| 20260903044507 | 85 | 212 | 0.0 | 0.0 | 0.00 | 0.00 | 0.00 | 65 | 1013.4 |
| 20260903043006 | 86 | 209 | 0.0 | 0.0 | 0.00 | 0.00 | 0.00 | 65 | 1013.3 |
| 20260903041505 | 86 | 153 | 0.0 | 0.0 | 0.00 | 0.00 | 0.00 | 64 | 1013.3 |
| 20260903040008 | 86 | 228 | 0.0 | 0.0 | 0.00 | 0.00 | 0.00 | 64 | 1013.3 |
| 20260903034509 | 87 | 219 | 0.0 | 0.0 | 0.00 | 0.00 | 0.00 | 64 | 1013.4 |
| 20260903033004 | 87 | 182 | 0.0 | 2.6 | 0.00 | 0.00 | 0.00 | 63 | 1013.4 |
| 20260903031504 | 87 | 137 | 0.0 | 0.0 | 0.00 | 0.00 | 0.00 | 63 | 1013.4 |
| 20260903030003 | 87 | 127 | 0.0 | 0.0 | 0.00 | 0.00 | 0.00 | 63 | 1013.4 |
| 20260903024502 | 88 | 281 | 0.0 | 0.0 | 0.00 | 0.00 | 0.00 | 62 | 1013.4 |
| 20260903023002 | 88 | 130 | 0.0 | 0.9 | 0.00 | 0.00 | 0.00 | 60 | 1013.3 |
| 20260903021502 | 89 | 201 | 0.0 | 0.9 | 0.00 | 0.00 | 0.00 | 59 | 1013.2 |
| 20260903020001 | 89 | 166 | 0.0 | 0.0 | 0.00 | 0.00 | 0.00 | 57 | 1013.1 |
| 20260903014500 | 90 | 178 | 0.0 | 0.0 | 0.00 | 0.00 | 0.00 | 55 | 1013.0 |
| 20260903013104 | 91 | 148 | 0.0 | 2.6 | 0.00 | 0.00 | 0.00 | 54 | 1012.8 |
| 20260903011609 | 91 | 151 | 0.0 | 0.0 | 0.00 | 0.00 | 0.00 | 53 | 1012.6 |
| 20260903010117 | 92 | 152 | 0.0 | 0.0 | 0.00 | 0.00 | 0.00 | 51 | 1012.4 |
| 20260903004559 | 93 | 232 | 0.0 | 0.0 | 0.00 | 0.00 | 0.00 | 48 | 1012.5 |
| 20260903003104 | 94 | 232 | 0.0 | 0.0 | 0.00 | 0.00 | 0.00 | 46 | 1012.4 |
| 20260903001600 | 95 | 238 | 0.0 | 0.0 | 0.00 | 0.00 | 0.00 | 45 | 1012.4 |
| 20260903000057 | 95 | 121 | 0.0 | 0.0 | 0.00 | 0.00 | 0.00 | 44 | 1012.4 |
| 20260902234556 | 96 | 144 | 0.0 | 0.0 | 0.00 | 0.00 | 0.00 | 43 | 1012.4 |
| 20260902233057 | 96 | 156 | 0.0 | 0.0 | 0.00 | 0.00 | 0.00 | 42 | 1012.3 |
| 20260902231609 | 96 | 152 | 0.0 | 3.5 | 0.00 | 0.00 | 0.00 | 43 | 1012.4 |
| 20260902230055 | 96 | 280 | 0.0 | 0.0 | 0.00 | 0.00 | 0.00 | 43 | 1012.3 |
| 20260902224604 | 96 | 137 | 0.0 | 0.0 | 0.00 | 0.00 | 0.00 | 41 | 1012.3 |
| 20260902223056 | 97 | 173 | 0.0 | 0.0 | 0.00 | 0.00 | 0.00 | 41 | 1012.3 |
| 20260902221608 | 98 | 156 | 0.0 | 1.7 | 0.00 | 0.00 | 0.00 | 41 | 1012.4 |
| 20260902220058 | 98 | 111 | 0.0 | 0.0 | 0.00 | 0.00 | 0.00 | 41 | 1012.4 |
| 20260902214551 | 99 | 231 | 0.0 | 0.0 | 0.00 | 0.00 | 0.00 | 40 | 1012.5 |
| 20260902213049 | 99 | 107 | 0.0 | 1.7 | 0.00 | 0.00 | 0.00 | 41 | 1012.6 |
| 20260902211548 | 99 | 142 | 0.0 | 0.0 | 0.00 | 0.00 | 0.00 | 40 | 1012.8 |
| 20260902210048 | 99 | 197 | 0.0 | 1.7 | 0.00 | 0.00 | 0.00 | 40 | 1012.9 |
| 20260902204548 | 98 | 246 | 0.0 | 3.5 | 0.00 | 0.00 | 0.00 | 42 | 1013.1 |
| 20260902203044 | 98 | 290 | 0.0 | 0.0 | 0.00 | 0.00 | 0.00 | 44 | 1013.2 |
| 20260902201548 | 98 | 259 | 0.0 | 0.9 | 0.00 | 0.00 | 0.00 | 42 | 1013.3 |
| 20260902200036 | 98 | 241 | 0.0 | 0.9 | 0.00 | 0.00 | 0.00 | 44 | 1013.5 |